Regional Weather Roundup
Issued by NWS

Home | Current Version | Previous Version | Graphics & Text | Print | Product List | Glossary On
Versions: 1 2 3 4 5 6 7 8 9 10 11 12 13 14 15 16 17 18 19 20 21 22 23 24 25 26 27 28 29 30 31 32 33 34 35 36 37 38 39 40 41 42 43 44 45 46 47 48 49 50
000
ASUS45 KSLC 220810
RWRUT

UTAH REGIONAL WEATHER ROUNDUP
NATIONAL WEATHER SERVICE SALT LAKE CITY UT
200 AM MDT FRI MAY 22 2015

UTZ001>011-023>025-220900-

NORTHERN UTAH

CITY           SKY/WX    TMP DP  RH WIND       PRES   REMARKS
BRIGHAM CITY   MOCLDY    53  45  74 CALM      29.91S
HILL AFB       CLOUDY    52  44  73 E10       29.90F
LOGAN          CLEAR     47  44  90 CALM      29.93S
OGDEN          CLOUDY    52  45  77 SW5       29.90S
PROVO AIRPORT  PTCLDY    48  41  76 CALM      29.92S
SALT LAKE CITY CLOUDY    55  48  77 CALM      29.89F
VERNAL         CLOUDY    52  43  71 N14       29.94F
WENDOVER       CLOUDY    54  46  76 CALM      29.91F
HEBER CITY     MOCLDY    37  37 100 S3        29.98S
WEST JORDAN    MOCLDY    52  46  82 S3        29.92S

$$

UTZ012>022-026-027-220900-

SOUTHERN/CENTRAL UTAH

CITY           SKY/WX    TMP DP  RH WIND       PRES   REMARKS
BLANDING       MOCLDY    51  40  66 E3        30.06S
BRYCE CANYON   PTCLDY    32  27  81 W7        30.02S WCI  26
CEDAR CITY     MOCLDY    45  32  60 CALM      29.93S
DELTA          PTCLDY    51  42  70 N5        29.90F
HANKSVILLE     CLOUDY    63  32  31 SE9G24    29.92R
MILFORD        CLOUDY    53  33  46 NE9       29.90F
MOAB/CYNLANDS  PTCLDY    60  36  40 SE13      29.87F
PRICE          CLOUDY    53  33  46 N6        29.92S
ST GEORGE      PTSUNNY   61  25  25 E9        29.85R
KANAB          PTCLDY    43  32  65 N3        29.97R

$$

REGIONAL REPORTS     COLORADO/ARIZONA

CITY           SKY/WX    TMP DP  RH WIND       PRES   REMARKS
CRAIG, CO      CLOUDY    49  41  74 CALM      29.97F
GRAND JUNCTION CLOUDY    52  44  74 E22G31    29.95R
RIFLE          CLOUDY    53  43  68 S6        29.97S
MONTROSE       CLOUDY    52  39  61 S7        30.04R
CORTEZ         CLOUDY    48  42  80 CALM      30.02R
PAGE, AZ       NOT AVBL
GRAND CANYON   CLEAR     32  29  88 E3        30.02S
KINGMAN        PTCLDY    55  25  31 SE8       29.88R
FLAGSTAFF      CLEAR     34  27  75 SW3       30.04S

$$

REGIONAL REPORTS    NEVADA/IDAHO/WYOMING

CITY           SKY/WX    TMP DP  RH WIND       PRES   REMARKS
LAS VEGAS, NV  MOCLDY    67  37  33 S10       29.75R
ELY            CLOUDY    41  36  82 SE3       29.97S
ELKO           CLOUDY    50  43  77 W3        29.93R
POCATELLO, ID  CLEAR     48  47  96 NE5       29.93F
BURLEY         CLOUDY    54  45  71 N3        29.89S
EVANSTON, WY   MOCLDY    41  37  86 E10       30.00F
ROCK SPRINGS   CLOUDY    43  38  82 S14       30.02F
KEMMERER       MOCLDY    41  36  81 NE7       30.03S

$$


USA.gov is the U.S. government's official web portal to all federal, state and local government web resources and services.